Flag for Germany Weather past 2 weeks in Löhne, North Rhine-Westphalia, Germany

Now
34 °F

Chilly.


Feels Like: 26 °F
Forecast: 36 / 47 °F
Wind: 10 mph from West

Location: Bueckeburg

Current Time: Apr 2, 2015 at 6:10:59 AM

Latest Report: Apr 2, 2015 at 5:20 AM


Visibility: 2 mi

Pressure: 29.74 "Hg

Humidity: 93%

Dew point: 32 °F

Location of LöhneLocation

Historic Weather in Löhne — Graph

°F

Löhne temperature yesterday

Maximum temperature yesterday: 45 °F (at 2:20 PM)
Minimum temperature yesterday: 34 °F (at 4:20 PM)
Average temperature yesterday: 39 °F

Past Weeks' High & Low Weather Summary

 TemperatureHumidityPressure
High63 °F (Mar 25, 3:20 PM)100% (Mar 18, 3:20 AM)30.36 "Hg (Mar 18, 3:20 AM)
Low30 °F (Mar 20, 5:20 AM)39% (Mar 25, 3:20 PM)29.06 "Hg (Mar 31, 7:20 AM)
Average43 °F78%29.88 "Hg
* Reported Mar 18 3:20 AM — Apr 2 4:20 AM, Löhne, Weather by CustomWeather, © 2015

Note: Actual official high and low records may vary slightly from our data, if they occured in-between our weather recording intervals... More about our weather records

Advertising

Löhne weather history for previous 24 hours

 ConditionsComfort  
Time TempWeatherWind HumidityBarometerVisibility
4:20 AM
Thu, Apr 2
36 °FChilly.13 mph93%29.77 "Hg1 mi
3:20 AM37 °FChilly.22 mph93%29.77 "Hg1 mi
2:20 AMN/A17 mphN/AN/A2 mi
1:20 AM39 °FChilly.16 mph87%29.83 "Hg2 mi
12:20 AM37 °FChilly.13 mph93%29.86 "Hg3 mi
11:20 PM
Wed, Apr 1
39 °FSprinkles. Mostly cloudy.15 mph81%29.89 "Hg4 mi
10:20 PM37 °FPassing clouds.12 mph81%29.92 "HgN/A
9:20 PM36 °FPassing clouds.8 mph93%29.95 "HgN/A
8:20 PM39 °FPartly sunny.17 mph81%29.95 "HgN/A
7:20 PM39 °FPartly sunny.18 mph81%29.95 "HgN/A
6:45 PM39 °FBroken clouds.20 mph81%29.92 "HgN/A
6:20 PM37 °FSprinkles. Broken clouds.24 mph87%29.92 "Hg5 mi
5:20 PM37 °FSprinkles. Partly sunny.16 mph93%29.92 "Hg5 mi
4:20 PM34 °FRain showers. Broken clouds.22 mph93%29.92 "Hg2 mi
3:20 PM43 °FThunderstorms. Partly sunny.14 mph66%29.92 "HgN/A
2:20 PM45 °FBroken clouds.22 mph66%29.89 "HgN/A
1:20 PM43 °FPartly sunny.22 mph76%29.89 "HgN/A
12:20 PM39 °FThunderstorms. Broken clouds.28 mph87%29.89 "HgN/A
11:20 AM43 °FPartly sunny.22 mph71%29.86 "HgN/A
10:20 AM41 °FPartly sunny.21 mph76%29.86 "HgN/A
9:20 AM39 °FPartly sunny.18 mph87%29.83 "HgN/A
8:20 AM37 °FBroken clouds.21 mph87%29.80 "HgN/A
7:20 AM36 °FSprinkles. Passing clouds.20 mph93%29.77 "Hg5 mi
6:20 AM37 °FPartly cloudy.20 mph81%29.74 "HgN/A
Weather by CustomWeather, © 2015

See weather overviewHow to use our weather pages